Regional Weather Roundup
Issued by NWS Albany, NY

Home | Current Version | Previous Version | Graphics & Text | Print | Product List | Glossary Off
Versions: 1 2 3 4 5 6 7 8 9 10 11 12 13 14 15 16 17 18 19 20 21 22 23 24 25 26 27

000
ASUS41 KALY 030310
RWRALY

NEW YORK STATE HOURLY WEATHER ROUNDUP
NATIONAL WEATHER SERVICE ALBANY NY
1000 PM EST FRI DEC 02 2016

NOTE: "FAIR" INDICATES FEW OR NO CLOUDS BELOW 12,000 FEET WITH NO
SIGNIFICANT WEATHER AND/OR NO OBSTRUCTIONS TO VISIBILITY.

NYZ032-033-038>043-046>054-057>066-NYZ062>081-082-084-030400-
EAST


CITY           SKY/WX    TMP DP  RH WIND       PRES   REMARKS
ALBANY         LGT RAIN  39  31  72 W18G26    29.83R WCI  30
GLENS FALLS    CLOUDY    40  31  70 NW6       29.79R
POUGHKEEPSIE   CLOUDY    41  29  62 W14G22    29.86R
NEWBURGH       PTCLDY    39  34  81 W14       29.88R WCI  31
MONTGOMERY     CLOUDY    41  29  62 W8        29.87R
WHITE PLAINS   MOCLDY    42  27  55 W13G24    29.86S
ISLIP          MOCLDY    45  28  51 W25G33    29.87R
NEW YORK CITY  MOCLDY    47  29  49 W16       29.90R
CENTRAL PARK   MOCLDY    45  28  51 VRB6G16   29.93R
$$

NYZ005>009-017-018-044>046-055-056-030400-
CENTRAL


CITY           SKY/WX    TMP DP  RH WIND       PRES   REMARKS
SYRACUSE       FLURRIES  34  34 100 W12       29.89R WCI  25
ROME           CLOUDY    33  33 100 NW8       29.88R WCI  26
ELMIRA         CLOUDY    37  31  78 W12       29.93R WCI  29
BINGHAMTON     LGT SNOW  33  29  85 W15G22    29.86R FOG     WCI  23
MONTICELLO     CLOUDY    36  28  75 W14G20    29.85S WCI  27
$$

NYZ026>034-041>043-087-030400-
NORTH


CITY           SKY/WX    TMP DP  RH WIND       PRES   REMARKS
WATERTOWN      MOCLDY    35  27  72 W12       29.87R WCI  27
FORT DRUM      NOT AVBL
OGDENSBURG     MOCLDY    37  31  81 W7        29.83S WCI  31
MASSENA        CLOUDY    36  29  75 W10       29.81R WCI  28
SARANAC LAKE   LGT SNOW  30  27  88 NW12      29.73R FOG     WCI  20
PLATTSBURGH    CLOUDY    36  29  75 CALM      29.75S
$$

NYZ001>004-010>016-019>021-085-030400-
WEST


CITY           SKY/WX    TMP DP  RH WIND       PRES   REMARKS
NIAGARA FALLS  CLOUDY    39  31  72 W15       30.01R WCI  31
BUFFALO        MOCLDY    36  32  85 W13       30.00R WCI  27
DUNKIRK        LGT RAIN  40  34  79 W18G28    30.05R WCI  31
JAMESTOWN      CLOUDY    36  28  75 W15G23    30.00R WCI  26
WELLSVILLE     LGT SNOW  34  31  88 NW12      29.95R VSB 3/4 WCI  25
ROCHESTER      FLURRIES  36  33  89 NW10      29.97R WCI  28
PENN YAN       CLOUDY    36  30  79 W9        29.94R WCI  29
$$

             KEY
       WCI = WIND CHILL INDEX
       VSB = VISIBILITY
       HX  = HEAT INDEX
$$




USA.gov is the U.S. government's official web portal to all federal, state and local government web resources and services.